RH
96 92 94 89 84 76 65 58 53 48 45 48 41 32 29 24 21 17 14 12 9 8 7 7 6 7 8 9 10 10 10 10 10 9 8 7 5 5 24 48 52 51 43 36 34
100 100 99 99 98 95 87 82 73 62 56 58 55 42 35 30 25 21 19 16 13 11 10 9 8 7 7 7 8 10 10 11 11 11 10 10 8 7 5 8 52 55 54 48 41
100 100 98 100 98 99 98 98 95 86 73 69 64 54 42 36 32 27 25 22 19 16 14 12 11 9 8 8 8 9 9 10 11 13 13 12 12 9 5 4 7 49 56 52 49
100 100 100 100 100 99 100 99 98 96 99 88 79 63 50 45 42 38 33 28 24 21 18 16 14 13 12 10 10 10 10 11 12 12 13 14 13 10 6 5 5 8 44 61 54
98 98 99 100 100 100 100 100 99 99 100 100 96 79 68 55 52 48 44 40 35 30 28 25 23 21 19 18 18 17 16 16 15 14 14 14 15 13 7 6 6 6 11 47 56
96 78 87 98 100 100 100 100 100 100 99 100 97 97 85 74 62 59 54 48 44 40 36 34 32 30 28 26 24 23 22 21 22 21 20 19 16 15 10 11 9 9 7 22 53
94 100 98 92 90 100 100 100 99 100 100 99 97 100 100 92 81 76 68 61 57 52 48 44 41 38 35 33 32 32 31 30 28 26 26 25 21 16 16 12 10 9 10 16 32
79 100 100 100 87 66 86 100 100 100 100 99 98 100 96 100 100 97 90 81 71 64 59 54 50 46 42 42 43 39 35 30 30 29 29 27 21 19 17 14 11 10 9 11 22
70 92 98 100 97 55 45 70 97 99 99 100 100 98 100 100 100 91 96 92 86 80 75 70 64 60 60 58 48 40 36 33 31 26 24 23 20 18 16 13 10 9 10 10 19
55 68 90 88 97 64 40 62 100 98 94 99 100 100 99 100 98 96 98 98 90 82 77 74 73 69 57 50 44 38 29 23 18 15 13 12 11 11 10 9 8 9 10 12 13
50 64 57 73 68 39 78 99 99 100 100 98 98 100 99 100 100 100 97 93 88 87 80 71 64 55 46 40 30 17 13 12 15 15 24 54 21 57 28 15 28 9 9 11 14
69 72 48 41 64 43 100 100 99 100 100 100 100 100 100 100 100 100 100 90 80 74 66 58 49 38 25 17 14 16 26 29 51 46 28 25 28 39 54 60 44 32 20 13 12
95 76 63 36 67 88 100 100 100 100 100 100 100 100 100 88 96 98 88 75 66 62 48 39 30 21 18 20 20 27 44 53 47 39 36 42 40 62 60 78 52 40 25 18 14
100 78 60 42 82 100 100 100 100 100 100 100 100 100 97 100 94 82 73 67 52 42 32 28 23 20 28 26 28 38 56 62 60 43 51 86 51 80 74 81 98 100 100 80 68
94 68 41 51 98 99 73 86 99 100 100 100 100 100 97 87 78 74 60 46 36 35 31 34 28 29 26 26 34 64 60 74 94 96 80 94 75 84 87 100 100 100 100 100 100
73 66 42 58 97 100 100 100 100 100 100 99 99 100 94 84 74 50 45 39 39 45 43 36 27 26 29 47 59 81 80 79 95 100 100 96 56 49 56 80 92 100 95 76 64
52 51 43 71 97 100 100 97 93 93 83 96 93 90 81 75 58 47 41 39 54 50 48 27 23 40 57 68 77 85 81 74 79 100 99 97 93 28 35 47 63 46 60 62 81
49 49 78 70 76 91 87 53 57 72 90 100 99 88 74 63 57 44 47 58 60 54 41 36 40 45 50 63 79 90 94 81 87 100 100 100 98 76 67 64 77 93 87 80 86
55 52 55 34 68 68 87 100 86 89 87 83 80 80 69 55 43 46 57 52 57 53 66 43 58 66 72 85 95 97 100 92 98 98 99 93 96 95 98 98 98 97 97 99 96
34 41 55 49 44 45 84 64 56 57 74 76 62 60 52 44 42 53 51 58 57 63 59 63 84 96 87 94 98 100 98 98 99 100 100 99 97 94 97 97 99 98 99 99 98
86 59 30 34 41 55 52 44 37 82 83 68 52 39 41 48 51 71 66 68 68 66 71 94 97 96 100 96 99 100 100 97 100 99 98 98 100 100 100 96 97 98 98 98 98
79 70 69 78 76 82 68 50 72 83 53 41 38 49 59 70 89 90 72 71 83 84 86 97 98 99 99 92 91 94 97 97 94 100 99 99 100 98 100 94 93 97 100 99 98
62 60 59 60 55 44 38 33 30 30 33 49 58 73 78 87 70 75 78 85 89 91 88 81 83 90 83 70 63 68 66 74 84 86 90 98 95 90 87 93 97 99 89 78 71
54 42 46 46 38 33 32 28 32 45 54 49 51 75 83 73 68 78 89 92 90 79 72 72 71 63 58 43 46 36 42 36 40 45 49 48 62 82 83 82 89 93 90 87 87
36 38 37 40 34 34 37 38 41 45 56 66 64 66 70 70 72 78 68 57 51 53 50 48 46 43 38 36 31 20 16 18 25 32 27 28 31 27 34 37 46 45 44 51 56
18 20 21 23 30 32 35 36 34 30 34 41 49 55 56 50 52 50 45 37 34 34 31 28 25 26 31 30 30 26 24 20 22 18 14 16 16 12 8 10 14 16 12 10 9
10 13 15 16 17 17 18 16 14 14 14 16 19 21 17 19 22 25 22 21 20 23 23 18 13 10 9 9 9 10 10 9 9 9 7 6 6 6 8 10 11 12 14 16 19
Wind_Speed
67 68 71 73 72 68 66 64 61 59 58 55 52 52 51 50 49 49 47 47 46 46 44 41 41 39 37 36 36 36 35 34 35 34 32 32 30 36 45 47 50 52 56 56 55
69 69 68 67 72 72 68 64 63 61 59 55 54 52 51 51 49 48 47 47 47 46 45 45 45 43 42 41 40 40 39 39 41 40 38 37 36 35 36 44 46 51 54 56 57
63 67 65 68 66 70 72 69 65 62 58 55 55 54 53 52 50 49 48 48 47 46 45 45 45 45 45 45 45 44 43 44 44 45 45 42 41 41 38 36 42 48 54 57 57
62 56 57 55 63 67 62 67 66 64 60 57 56 56 53 53 49 49 48 47 46 46 45 44 46 46 46 47 48 48 47 48 48 49 49 50 48 43 41 36 41 47 52 54 57
55 58 50 47 46 52 59 54 60 62 60 56 56 56 53 51 50 48 47 47 46 46 45 44 44 45 45 46 47 47 48 49 51 52 54 55 53 52 44 45 44 45 52 57 61
44 49 49 44 45 40 41 50 42 51 55 53 54 51 51 49 50 47 45 45 45 44 45 44 43 45 46 48 47 47 49 50 51 54 56 59 57 60 51 53 50 48 52 58 62
30 27 26 38 38 39 35 36 38 35 45 50 49 46 45 49 47 45 43 44 43 42 42 43 43 44 45 47 47 48 49 51 52 56 58 62 59 60 63 63 57 55 56 61 62
19 14 13 15 23 26 30 32 28 30 35 43 43 46 47 41 42 44 43 40 40 39 40 41 41 42 43 45 48 48 49 50 53 58 60 63 55 64 71 69 65 62 62 62 64
20 14 13 6 12 15 17 24 27 24 28 35 36 39 39 31 36 40 39 38 37 39 39 40 40 43 43 43 44 45 47 51 54 59 60 62 57 66 74 73 68 68 65 62 64
14 11 10 9 6 21 24 12 18 21 24 27 31 38 39 47 43 37 34 32 31 31 32 33 34 35 35 35 38 41 44 49 53 61 62 64 64 64 72 73 64 59 59 58 60
9 8 7 8 5 24 35 39 21 24 34 34 30 24 25 28 29 28 25 23 24 26 24 25 25 25 26 30 35 40 43 43 38 33 25 20 29 24 36 36 34 44 48 49 50
8 6 5 1 13 33 37 36 34 37 34 37 35 28 24 30 28 21 20 20 16 15 14 15 16 19 25 29 27 23 20 19 18 22 21 23 27 33 31 29 30 31 30 35 41
5 3 4 5 17 32 34 38 32 38 42 32 32 23 20 29 28 27 22 16 14 12 10 12 14 17 19 16 16 13 14 19 16 16 20 20 18 15 22 23 22 18 19 21 29
1 2 6 15 20 32 45 39 35 28 24 26 27 29 26 27 26 22 18 16 14 11 11 10 11 11 11 11 7 11 13 16 15 12 15 19 15 6 5 7 8 6 2 6 8
10 9 4 17 28 32 42 33 37 32 39 33 30 29 27 27 24 22 18 16 15 13 9 10 9 5 3 2 7 6 9 9 17 11 10 13 8 5 6 3 6 7 5 9 12
15 18 16 20 37 35 45 32 28 30 29 34 29 26 28 27 23 20 16 15 16 12 11 10 7 3 3 3 6 12 18 19 17 17 15 10 6 3 2 6 7 7 7 10 11
29 27 24 23 36 41 31 26 27 29 31 32 30 27 28 24 20 18 14 18 13 7 6 7 7 9 6 6 12 16 14 13 12 14 10 8 5 1 2 6 10 10 13 13 18
37 36 34 27 31 35 25 30 30 33 35 34 30 29 23 21 20 17 18 16 10 6 9 14 9 4 6 9 7 5 12 9 8 11 8 6 6 2 5 5 5 7 13 20 20
41 38 35 33 35 29 28 30 35 37 30 31 29 22 21 19 16 17 18 11 9 14 12 13 6 2 2 3 3 8 10 7 5 6 9 11 10 11 11 12 15 18 15 18 9
40 36 34 29 24 20 20 23 25 27 28 25 20 23 20 14 17 19 13 11 14 14 14 7 5 6 4 6 6 7 7 7 6 5 5 8 10 12 12 13 9 11 11 13 14
35 32 29 25 22 22 16 18 23 23 25 22 23 21 20 22 20 14 14 17 15 11 8 8 10 8 8 6 7 10 11 10 8 10 9 10 13 9 18 17 15 19 17 17 14
36 33 34 32 29 27 27 26 25 28 27 26 23 24 25 22 18 17 19 16 12 12 11 11 12 11 12 14 15 14 15 16 15 16 16 13 12 10 14 16 17 22 23 22 18
39 37 36 33 31 30 30 31 30 30 27 27 29 25 21 19 23 20 16 15 15 15 14 12 12 12 13 15 18 15 17 17 15 17 17 15 16 17 12 13 16 19 22 26 28
45 44 40 35 34 34 33 33 35 35 32 28 22 24 29 26 21 18 17 18 18 15 12 11 11 12 12 13 14 12 15 14 16 15 15 15 16 13 10 9 10 14 14 11 9
47 47 46 45 44 42 39 37 33 29 30 31 32 31 27 22 19 19 18 17 15 14 12 10 10 10 9 8 7 7 8 8 11 9 9 9 10 9 9 8 8 8 7 5 4
39 39 39 38 38 37 36 36 35 34 32 29 27 24 23 20 17 14 12 11 10 10 9 8 5 3 2 2 3 4 4 3 3 2 2 4 3 3 3 3 1 2 4 5 6
42 38 37 38 37 38 36 34 32 31 29 26 23 20 18 16 13 11 9 7 6 4 3 2 3 5 5 4 3 1 1 3 5 7 10 10 11 11 11 9 8 8 5 4 6
Wind_Direction
264 262 259 258 256 253 251 251 248 247 248 248 247 249 249 249 250 250 251 253 253 253 253 253 255 257 261 265 268 269 276 275 275 275 273 273 273 265 258 252 249 250 252 250 248
263 262 261 259 254 251 247 244 245 244 244 243 246 245 247 247 247 249 250 251 252 252 254 254 256 258 261 263 264 268 271 272 274 276 275 277 275 275 269 260 254 250 250 251 249
263 261 261 259 255 252 246 240 238 240 241 240 241 242 242 245 245 247 248 250 251 252 254 256 258 258 260 262 265 267 270 271 274 276 278 275 274 270 271 271 259 250 250 248 247
265 261 256 256 256 254 248 241 236 234 234 236 237 238 239 240 243 244 247 249 251 252 253 255 258 260 261 263 265 267 269 272 274 275 275 274 272 271 269 270 269 257 246 248 249
275 270 262 253 244 249 250 242 240 232 230 231 234 235 236 237 238 240 243 247 249 250 252 254 257 262 263 264 266 268 271 272 273 274 274 274 275 271 268 274 271 267 254 245 244
282 269 267 264 252 236 236 240 236 237 229 225 228 232 234 234 236 238 241 244 248 251 254 258 260 261 264 266 268 270 272 273 275 275 273 273 272 273 270 270 266 265 261 246 244
284 271 266 261 259 246 228 222 224 226 232 227 226 228 234 233 234 236 239 244 247 250 254 257 259 261 264 268 271 272 273 275 276 276 277 273 271 271 270 269 270 268 260 251 244
317 306 268 249 253 252 255 231 217 217 223 227 227 220 230 236 235 236 237 239 246 251 254 257 261 263 266 269 272 274 275 277 277 276 275 273 273 270 270 269 268 268 266 252 249
311 295 290 268 224 223 239 248 227 205 213 220 216 218 212 198 213 233 235 238 244 249 253 258 262 266 269 272 275 277 280 280 279 278 277 277 276 270 270 268 269 269 263 252 246
326 303 308 292 247 175 159 197 216 191 190 200 199 210 222 219 225 229 233 233 240 249 255 259 265 269 272 277 280 281 282 280 278 278 276 275 271 270 268 270 268 260 258 252 247
323 338 319 255 205 171 154 152 185 171 167 186 198 199 202 209 212 215 221 231 236 242 249 257 264 273 279 280 278 278 280 283 286 286 290 287 270 262 261 260 259 260 256 249 247
286 323 24 174 182 164 154 162 161 167 165 183 174 178 193 188 202 210 208 207 212 224 241 253 265 275 279 277 279 288 298 305 297 303 307 306 287 263 255 262 264 263 261 251 241
273 265 329 168 188 153 159 160 156 167 177 173 181 171 175 196 200 188 184 183 200 212 224 246 267 275 272 273 288 299 311 313 303 302 314 327 316 286 262 266 272 267 260 244 236
330 335 347 177 177 118 157 176 140 152 164 175 167 152 160 162 163 168 175 192 191 202 218 241 258 254 276 291 304 318 303 306 305 302 304 330 348 296 247 211 193 142 34 163 197
56 33 133 167 176 117 156 158 146 145 154 149 147 157 155 156 164 169 175 178 185 186 205 218 218 268 295 329 308 297 300 290 316 307 318 335 349 92 48 116 127 117 120 156 179
61 76 124 153 158 128 134 136 151 159 149 149 146 140 149 152 160 165 169 175 166 177 195 209 226 204 110 238 248 297 299 294 307 304 312 327 350 275 172 142 154 131 146 130 130
66 87 118 148 137 127 107 115 127 145 138 147 146 149 153 157 157 154 164 165 163 168 190 209 156 144 174 257 294 304 300 290 314 340 343 322 326 56 117 129 151 149 156 148 144
89 97 96 127 130 111 105 132 137 133 139 142 146 150 152 153 152 155 160 152 150 150 138 128 125 175 261 288 285 343 358 354 339 332 3 18 16 160 175 164 137 126 154 139 135
82 85 91 120 125 106 102 103 137 135 133 136 139 141 140 142 149 147 143 140 131 126 107 108 119 222 254 256 337 6 24 22 25 60 57 71 81 102 109 98 101 122 125 135 147
74 78 89 99 100 98 95 108 110 123 130 132 132 130 133 135 133 136 138 123 115 106 115 121 131 117 94 10 11 343 358 34 23 30 79 89 78 94 87 94 73 95 108 84 133
75 82 85 80 88 97 112 119 120 118 119 120 122 118 123 123 120 115 122 111 108 112 119 125 118 93 77 76 79 89 85 82 62 69 80 77 76 101 89 94 100 78 78 109 96
77 76 78 85 93 99 111 124 122 117 113 116 117 114 109 107 110 116 109 108 102 111 116 111 96 83 73 71 69 66 68 69 72 67 64 66 79 92 88 93 91 83 89 92 92
75 77 83 86 95 101 108 111 114 112 109 108 106 103 104 102 108 108 107 94 98 99 93 93 83 67 70 71 66 54 64 66 63 65 62 71 73 72 82 90 90 102 110 106 104
75 79 82 86 88 93 96 99 101 102 100 95 95 92 98 100 107 102 100 97 93 91 96 83 73 78 79 77 73 81 74 73 71 64 65 66 78 84 89 95 97 108 115 110 106
79 80 81 86 87 90 93 95 96 94 91 88 93 93 96 96 99 99 99 95 96 104 105 100 98 94 88 77 62 59 69 63 65 62 65 61 55 59 53 58 89 97 94 83 75
80 81 83 85 88 90 91 90 89 86 85 87 91 95 95 95 96 95 88 88 91 113 114 117 114 123 48 8 324 318 323 339 351 32 81 115 110 63 43 41 255 125 102 122 117
82 83 83 87 88 90 91 89 87 86 86 88 90 94 96 95 101 107 113 119 125 150 168 191 273 294 295 299 287 299 34 92 105 109 109 111 113 109 103 108 106 107 113 105 65